Location: Buckland
(65.9785°N, 161.1281°W)
Time: 06:54:05
(UTC+00:00)

Transit 2A Rocket - Pass Details

Date: 30 November 2020
Orbit: 592 x 910 km, 66.7° (Epoch: 21 January)

Event Time Altitude Azimuth Distance (km) Brightness Sun altitude
Exits shadow 12:57:54 17° 76° (ENE) 1,927 7.5 -40.1°
Drops below altitude 10° 12:59:11 10° 67° (ENE) 2,322 8.1 -40.0°
Sets 13:01:42 0° 57° (ENE) 3,196 9.1 -39.8°
